Location: Altadena
(34.1897°N, 118.1312°W)
Time: 07:04:32
(UTC+00:00)

Daily predictions for brighter satellites

Satellite Brightness Start Highest point End
(mag) Time Altitude Azimuth Time Altitude Azimuth Time Altitude Azimuth
Cosmos 405 2.9 12:03:50 10° S 12:07:13 89° W 12:10:38 10° N
Meteor 1-5 Rocket 4.1 12:02:23 10° SSW 12:07:44 72° W 12:13:01 10° N
DELTA 2 DEB (DPAF) 4.1 12:04:38 10° S 12:08:59 62° WSW 12:13:21 10° NNW
Sakura Rocket 3.8 12:07:54 10° WSW 12:10:56 24° SSW 12:13:55 10° SE
Meteor 1-29 3.5 12:08:51 10° N 12:12:00 40° WNW 12:15:09 10° SW
METEOR-M 4.4 12:07:15 10° N 12:12:25 52° WNW 12:17:34 10° SSW
YAOGAN 6 3.0 12:09:22 10° NNE 12:12:57 65° E 12:16:28 10° S
Cosmos 1125 Rocket 3.5 12:09:10 10° NNW 12:14:30 82° WSW 12:19:48 10° SSE
